AirNav   Air Wisconsin pilot careers
 
 1336 users online  

L90 Ocotillo Airport
Ocotillo Wells, California, USA

GOING TO OCOTILLO WELLS?


FAA INFORMATION EFFECTIVE 01 FEBRUARY 2018

Location

FAA Identifier: L90
Lat/Long: 33-08-52.0000N / 116-07-53.7000W
33-08.866667N / 116-07.895000W
33.1477778 / -116.1315833
(estimated)
Elevation: 160 ft. / 49 m (estimated)
Variation: 13E (1985)
Time zone: UTC -8 (UTC -7 during Daylight Saving Time)
Zip code: 92004

Airport Operations

Airport use: Open to the public
Activation date: 06/1948
Control tower: no
ARTCC: LOS ANGELES CENTER
FSS: SAN DIEGO FLIGHT SERVICE STATION
NOTAMs facility: SAN (NOTAM-D service available)
Attendance: UNATNDD
Pattern altitude: 960 ft. MSL
Wind indicator: yes
Segmented circle: yes

Airport Communications

CTAF: 122.9
WX AWOS-3 at L08 (12 nm NW): 126.575 (760-767-3308)

Nearby radio navigation aids

VOR radial/distance  VOR name  Freq  Var
JLIr074/22.8JULIAN VORTAC114.0015E
TRMr164/28.9THERMAL VORTAC116.2013E
IPLr293/39.5IMPERIAL VORTAC115.9014E

Airport Services

Parking: tiedowns
Airframe service: NONE
Powerplant service: NONE
Bottled oxygen: NONE
Bulk oxygen: NONE

Runway Information

Runway 13/31

Dimensions: 4210 x 150 ft. / 1283 x 46 m
Surface: dirt, in good condition
RUNWAY 13  RUNWAY 31
Latitude: 33-09.220833N33-08.647833N
Longitude: 116-08.170167W116-07.704000W
Traffic pattern: leftright
Runway end identifier lights: nono
Obstructions: 60 ft. hill, 2000 ft. from runway, 33:1 slope to clear19 ft. road, 420 ft. from runway, 22:1 slope to clear

Runway 9/27

Dimensions: 2475 x 150 ft. / 754 x 46 m
Surface: dirt, in good condition
RUNWAY 9  RUNWAY 27
Latitude: 33-08.802667N33-08.699000N
Longitude: 116-08.058833W116-07.589333W
Traffic pattern: rightleft
Runway end identifier lights: nono
Obstructions: 50 ft. hill, 800 ft. from runway, 16:1 slope to clear77 ft. hill, 3000 ft. from runway, 38:1 slope to clear

Airport Ownership and Management from official FAA records

Ownership: Publicly-owned
Owner: COUNTY OF SAN DIEGO
1960 JOE CROSSON DRIVE
EL CAJON, CA 92020-1236
Phone 619-956-4800
Manager: MARC BASKEL
1960 JOE CROSSON DRIVE
EL CAJON, CA 92020-1236
Phone 619-956-4800
AMGRS OFFICE AT GILLESPIE FIELD.

Airport Operational Statistics

Aircraft operations: avg 34/week *
67% military
33% transient general aviation
* for 12-month period ending 31 May 2017

Additional Remarks

FLD UNUSABLE WHEN WET.
ALL RDO EQUIPPED ACFT MUST SELF-ANNOUNCE ON CTAF PRIOR TO LDG OR DEP.
PPR FOR ALL MIL ACFT; CTC AMGR.
ULTRALIGHT AREA NE QUAD OF AP.
OBSTN TO FAR PART 77, HILLS SURROUND ARPT.
RYS 09 & 27 AND RYS 13 & 31 THLDS MARKED BY WHITE PAVING BLOCKS.
CTN FOR OCNL UNAUTHORIZED OFF ROAD VEHICLES ON AND IN VCNTY OF RWYS AND TWYS.
ALL RY INTERSECTIONS MARKED BY WHITE PAVING BLOCKS.
BE ALERT FOR HIGH SPD MIL TILT ROTOR AND ULTRALIGHT OPS ON AND IN VCNTY OF ARPT.
ALL RWYS CLSD SS-SR, NOT LGTD.

Instrument Procedures

There are no published instrument procedures at L90.

Some nearby airports with instrument procedures:

L08 - Borrego Valley Airport (12 nm NW)
KTRM - Jacqueline Cochran Regional Airport (29 nm N)
KNJK - El Centro NAF Airport (30 nm SE)
KCLR - Cliff Hatfield Memorial Airport (31 nm E)
KBWC - Brawley Municipal Airport (32 nm E)
 
Loc | Ops | Rwys | IFR | FBO | Links
Com | Nav | Svcs | Stats | Notes

AirNav Hotels Sweepstakes
 
Area around L90 (Ocotillo Airport)
 
Road maps at: MapQuest Bing Google
 
Aerial photo
WARNING: Photo may not be current or correct
Aerial photo of L90 (Ocotillo Airport)
Photo taken 11-Nov-2009

Do you have a better or more recent aerial photo of Ocotillo Airport that you would like to share? If so, please send us your photo.

 
Sectional chart

 
Airport distance calculator
Flying to Ocotillo Airport? Find the distance to fly.

From to L90

Sunrise and sunset
Times for 22-Feb-2018
 Local
(UTC-8)
 Zulu
(UTC)
Morning civil twilight05:5713:57
Sunrise06:2214:22
Sunset17:3401:34
Evening civil twilight18:0002:00

Current date and time
Zulu (UTC)  22-Feb-2018 22:12:35
Local (UTC-8)  22-Feb-2018 14:12:35
 
METAR
KTRM 
29nm N 
222152Z AUTO 28013KT 10SM CLR 21/M01 A3009 RMK AO2 PK WND 26027/2135 SLP190 T02061011
KNJK 
31nm SE 
222156Z 25023KT 10SM BKN080 20/M03 A3016 RMK AO2 PK WND 23029/2146 SLP227 P0000 T02001033
KIPL 
33nm SE 
222153Z AUTO 24016G21KT 10SM BKN080 19/M02 A3012 RMK AO2 SLP200 T01941017
KCZZ 
35nm SW 
222152Z AUTO 22019G23KT 09/02 A3012 RMK AO1 SLP201 T00890022
KRNM 
40nm W 
222153Z 27011KT 10SM SCT027 BKN034 BKN060 12/05 A3018 RMK AO2 SLP223 T01220050
KPSP 
44nm NW 
222153Z 11009KT 10SM FEW090 18/M02 A3011 RMK AO2 SLP197 T01781022
KSEE 
46nm SW 
222147Z 24011KT 10SM BKN055 OVC070 14/05 A3020
TAF
KTRM 
29nm N 
221740Z 2218/2318 13007KT P6SM SKC FM230000 28012G20KT P6SM SKC FM230300 32012G20KT P6SM SKC
KNJK 
31nm SE 
2215/2315 25010KT 9999 FEW060 FEW250 520009 520906 521809 522709 523603 QNH3014INS TEMPO 2215/2221 25017KT FM222100 25016KT 9999 FEW250 520009 520906 521809 522709 523603 QNH3008INS TEMPO 2221/2303 25022G30KT FM220300 25015KT 9999 FEW250 520009 520906 521809 522709 523603 QNH3010INS T19/2223Z T04/2314Z FS30093
KIPL 
33nm SE 
221720Z 2218/2318 24008KT P6SM SKC FM222200 27012G22KT P6SM FEW060 FM230400 26014KT P6SM FEW060 FM231300 27018G28KT P6SM BKN050 BKN060
NOTAMs
Click for the latest NOTAMs
NOTAMs are issued by the DoD/FAA and will open in a separate window not controlled by AirNav.

 

 
 

Where to Eat: Catering, Restaurants, Food shops

  
 Business Name 
 
 Contact 
 
 Services / Description 
 
Distance
 
Comments
  
Leapin Lizard RV Ranch 760-767-4526
[web site]
[email]
Internet access, Restrooms, Showers, Lodging, Camping on site

More info about Leapin Lizard RV Ranch
0.2 miles
free shuttle
 
   write
 

Would you like to see your business listed on this page?

 If your business provides an interesting product or service to pilots, flight crews, aircraft, or users of the Ocotillo Airport, you should consider listing it here.  To start the listing process, click on the button below
 
Add a business
 

Other Pages about Ocotillo Airport

www.co.san-diego.ca.us/...
 
Update a link
 
Copyright © AirNav, LLC. All rights reserved. Privacy Policy  Contact